Time,TemperatureF,DewpointF,PressureIn,WindDirection,WindDirectionDegrees,WindSpeedMPH,WindSpeedGustMPH,Humidity,HourlyPrecipIn,Conditions,Clouds,dailyrainin,SolarRadiationWatts/m^2,SoftwareType,DateUTC
2013-09-14 00:04:00,51.0,48.0,-100.00,East,92,1.0,8.0,91,0.00,,,0.02,0.000000,,2013-09-14 04:04:00,
2013-09-14 00:14:00,51.0,48.0,-100.00,East,92,1.0,8.0,91,0.00,,,0.02,0.000000,,2013-09-14 04:14:00,
2013-09-14 00:43:00,48.0,47.0,-100.00,East,100,1.0,3.0,97,0.00,,,0.02,0.000000,,2013-09-14 04:43:00,
2013-09-14 00:54:00,48.0,47.0,-100.00,East,100,1.0,3.0,97,0.00,,,0.02,0.000000,,2013-09-14 04:54:00,
2013-09-14 01:03:00,48.0,47.0,-100.00,East,100,1.0,3.0,97,0.00,,,0.02,0.000000,,2013-09-14 05:03:00,
2013-09-14 01:13:00,48.0,47.0,-100.00,East,100,1.0,3.0,97,0.00,,,0.02,0.000000,,2013-09-14 05:13:00,
2013-09-14 01:43:00,47.0,47.0,-100.00,East,96,1.0,2.0,100,0.00,,,0.01,0.000000,,2013-09-14 05:43:00,
2013-09-14 01:53:00,47.0,47.0,-100.00,East,96,1.0,2.0,100,0.00,,,0.01,0.000000,,2013-09-14 05:53:00,
2013-09-14 02:02:00,47.0,47.0,-100.00,East,96,1.0,2.0,100,0.00,,,0.01,0.000000,,2013-09-14 06:02:00,
2013-09-14 02:12:00,47.0,47.0,-100.00,East,96,1.0,2.0,100,0.00,,,0.01,0.000000,,2013-09-14 06:12:00,
2013-09-14 02:42:00,45.0,45.0,-100.00,East,83,0.0,0.0,100,0.00,,,0.01,0.000000,,2013-09-14 06:42:00,
2013-09-14 02:52:00,45.0,45.0,-100.00,East,83,0.0,0.0,100,0.00,,,0.01,0.000000,,2013-09-14 06:52:00,
2013-09-14 03:02:00,45.0,45.0,-100.00,East,83,0.0,0.0,100,0.00,,,0.01,0.000000,,2013-09-14 07:02:00,
2013-09-14 03:12:00,45.0,45.0,-100.00,East,83,0.0,0.0,100,0.00,,,0.01,0.000000,,2013-09-14 07:12:00,
2013-09-14 03:42:00,44.0,44.0,-100.00,East,98,0.0,0.0,100,0.00,,,0.01,0.000000,,2013-09-14 07:42:00,
2013-09-14 03:52:00,44.0,44.0,-100.00,East,98,0.0,0.0,100,0.00,,,0.01,0.000000,,2013-09-14 07:52:00,
2013-09-14 04:02:00,44.0,44.0,-100.00,East,98,0.0,0.0,100,0.00,,,0.01,0.000000,,2013-09-14 08:02:00,
2013-09-14 04:12:00,44.0,44.0,-100.00,East,98,0.0,0.0,100,0.00,,,0.01,0.000000,,2013-09-14 08:12:00,
2013-09-14 04:42:00,43.0,43.0,-100.00,East,93,0.0,0.0,100,0.00,,,0.01,0.000000,,2013-09-14 08:42:00,
2013-09-14 04:52:00,43.0,43.0,-100.00,East,93,0.0,0.0,100,0.00,,,0.01,0.000000,,2013-09-14 08:52:00,
2013-09-14 05:02:00,43.0,43.0,-100.00,East,93,0.0,0.0,100,0.00,,,0.01,0.000000,,2013-09-14 09:02:00,
2013-09-14 05:12:00,43.0,43.0,-100.00,East,93,0.0,0.0,100,0.00,,,0.01,0.000000,,2013-09-14 09:12:00,
2013-09-14 05:43:00,42.0,42.0,-100.00,East,96,0.0,0.0,100,0.00,,,0.01,0.000000,,2013-09-14 09:43:00,
2013-09-14 05:54:00,42.0,42.0,-100.00,East,96,0.0,0.0,100,0.00,,,0.01,0.000000,,2013-09-14 09:54:00,
2013-09-14 06:03:00,42.0,42.0,-100.00,East,96,0.0,0.0,100,0.00,,,0.01,0.000000,,2013-09-14 10:03:00,
2013-09-14 06:13:00,42.0,42.0,-100.00,East,96,0.0,0.0,100,0.00,,,0.01,0.000000,,2013-09-14 10:13:00,
2013-09-14 06:43:00,42.0,42.0,-100.00,East,93,1.0,2.0,100,0.00,,,0.01,0.000000,,2013-09-14 10:43:00,
2013-09-14 06:53:00,42.0,42.0,-100.00,East,93,1.0,2.0,100,0.00,,,0.01,0.000000,,2013-09-14 10:53:00,
2013-09-14 07:02:00,42.0,42.0,-100.00,East,93,1.0,2.0,100,0.00,,,0.01,0.000000,,2013-09-14 11:02:00,
2013-09-14 07:12:00,42.0,42.0,-100.00,East,93,1.0,2.0,100,0.00,,,0.01,0.000000,,2013-09-14 11:12:00,
2013-09-14 07:42:00,41.0,41.0,-100.00,East,101,0.0,0.0,100,0.00,,,0.01,3.000000,,2013-09-14 11:42:00,
2013-09-14 07:52:00,41.0,41.0,-100.00,East,101,0.0,0.0,100,0.00,,,0.01,3.000000,,2013-09-14 11:52:00,
2013-09-14 08:02:00,41.0,41.0,-100.00,East,101,0.0,0.0,100,0.00,,,0.01,3.000000,,2013-09-14 12:02:00,
2013-09-14 08:12:00,41.0,41.0,-100.00,East,101,0.0,0.0,100,0.00,,,0.01,3.000000,,2013-09-14 12:12:00,
2013-09-14 08:42:00,45.0,45.0,-100.00,SE,133,0.0,0.0,100,0.00,,,0.01,35.000000,,2013-09-14 12:42:00,
2013-09-14 08:53:00,45.0,45.0,-100.00,SE,133,0.0,0.0,100,0.00,,,0.01,35.000000,,2013-09-14 12:53:00,
2013-09-14 09:01:00,45.0,45.0,-100.00,SE,133,0.0,0.0,100,0.00,,,0.01,35.000000,,2013-09-14 13:01:00,
2013-09-14 09:12:00,45.0,45.0,-100.00,SE,133,0.0,0.0,100,0.00,,,0.01,35.000000,,2013-09-14 13:12:00,
2013-09-14 09:42:00,51.0,46.0,-100.00,NW,320,2.0,5.0,82,0.00,,,0.01,133.000000,,2013-09-14 13:42:00,
2013-09-14 09:52:00,51.0,46.0,-100.00,NW,320,2.0,5.0,82,0.00,,,0.01,133.000000,,2013-09-14 13:52:00,
2013-09-14 10:02:00,51.0,46.0,-100.00,NW,320,2.0,5.0,82,0.00,,,0.01,133.000000,,2013-09-14 14:02:00,
2013-09-14 10:12:00,51.0,46.0,-100.00,NW,320,2.0,5.0,82,0.00,,,0.01,133.000000,,2013-09-14 14:12:00,
2013-09-14 10:43:00,53.0,46.0,-100.00,NNW,332,3.0,10.0,76,0.00,,,0.01,161.000000,,2013-09-14 14:43:00,
2013-09-14 10:52:00,53.0,46.0,-100.00,NNW,332,3.0,10.0,76,0.00,,,0.01,161.000000,,2013-09-14 14:52:00,
2013-09-14 11:02:00,53.0,46.0,-100.00,NNW,332,3.0,10.0,76,0.00,,,0.01,161.000000,,2013-09-14 15:02:00,
2013-09-14 11:11:00,53.0,46.0,-100.00,NNW,332,3.0,10.0,76,0.00,,,0.01,161.000000,,2013-09-14 15:11:00,
2013-09-14 11:44:00,56.0,43.0,-100.00,NW,326,4.0,9.0,61,0.00,,,0.01,241.000000,,2013-09-14 15:44:00,
2013-09-14 11:53:00,56.0,43.0,-100.00,NW,326,4.0,9.0,61,0.00,,,0.01,241.000000,,2013-09-14 15:53:00,
2013-09-14 12:04:00,56.0,43.0,-100.00,NW,326,4.0,9.0,61,0.00,,,0.01,241.000000,,2013-09-14 16:04:00,
2013-09-14 12:14:00,56.0,43.0,-100.00,NW,326,4.0,9.0,61,0.00,,,0.01,241.000000,,2013-09-14 16:14:00,
2013-09-14 12:44:00,57.0,41.0,-100.00,North,356,3.0,10.0,54,0.00,,,0.01,306.000000,,2013-09-14 16:44:00,
2013-09-14 12:54:00,57.0,41.0,-100.00,North,356,3.0,10.0,54,0.00,,,0.01,306.000000,,2013-09-14 16:54:00,
2013-09-14 13:03:00,57.0,41.0,-100.00,North,356,3.0,10.0,54,0.00,,,0.01,306.000000,,2013-09-14 17:03:00,
2013-09-14 13:11:00,57.0,41.0,-100.00,North,356,3.0,10.0,54,0.00,,,0.01,306.000000,,2013-09-14 17:11:00,
2013-09-14 13:43:00,61.0,46.0,-100.00,NW,309,6.0,14.0,57,0.00,,,0.01,549.000000,,2013-09-14 17:43:00,
2013-09-14 13:54:00,61.0,46.0,-100.00,NW,309,6.0,14.0,57,0.00,,,0.01,549.000000,,2013-09-14 17:54:00,
2013-09-14 14:02:00,61.0,46.0,-100.00,NW,309,6.0,14.0,57,0.00,,,0.01,549.000000,,2013-09-14 18:02:00,
2013-09-14 14:12:00,61.0,46.0,-100.00,NW,309,6.0,14.0,57,0.00,,,0.01,549.000000,,2013-09-14 18:12:00,
2013-09-14 14:43:00,64.0,44.0,-100.00,NW,305,4.0,11.0,49,0.00,,,0.01,780.000000,,2013-09-14 18:43:00,
2013-09-14 14:52:00,64.0,44.0,-100.00,NW,305,4.0,11.0,49,0.00,,,0.01,780.000000,,2013-09-14 18:52:00,
2013-09-14 15:02:00,64.0,44.0,-100.00,NW,305,4.0,11.0,49,0.00,,,0.01,780.000000,,2013-09-14 19:02:00,
2013-09-14 15:11:00,64.0,44.0,-100.00,NW,305,4.0,11.0,49,0.00,,,0.01,780.000000,,2013-09-14 19:11:00,
2013-09-14 15:42:00,65.0,45.0,-100.00,NW,317,5.0,13.0,49,0.00,,,0.01,699.000000,,2013-09-14 19:42:00,
2013-09-14 15:52:00,65.0,45.0,-100.00,NW,317,5.0,13.0,49,0.00,,,0.01,699.000000,,2013-09-14 19:52:00,
2013-09-14 16:02:00,65.0,45.0,-100.00,NW,317,5.0,13.0,49,0.00,,,0.01,699.000000,,2013-09-14 20:02:00,
2013-09-14 16:12:00,65.0,45.0,-100.00,NW,317,5.0,13.0,49,0.00,,,0.01,699.000000,,2013-09-14 20:12:00,
2013-09-14 16:42:00,67.0,46.0,-100.00,NNW,345,3.0,11.0,46,0.00,,,0.01,583.000000,,2013-09-14 20:42:00,
2013-09-14 16:52:00,67.0,46.0,-100.00,NNW,345,3.0,11.0,46,0.00,,,0.01,583.000000,,2013-09-14 20:52:00,
2013-09-14 17:02:00,67.0,46.0,-100.00,NNW,345,3.0,11.0,46,0.00,,,0.01,583.000000,,2013-09-14 21:02:00,
2013-09-14 17:12:00,67.0,46.0,-100.00,NNW,345,3.0,11.0,46,0.00,,,0.01,583.000000,,2013-09-14 21:12:00,
2013-09-14 17:44:00,69.0,47.0,-100.00,West,277,2.0,9.0,45,0.00,,,0.00,432.000000,,2013-09-14 21:44:00,
2013-09-14 17:54:00,69.0,47.0,-100.00,West,277,2.0,9.0,45,0.00,,,0.00,432.000000,,2013-09-14 21:54:00,
2013-09-14 18:04:00,69.0,47.0,-100.00,West,277,2.0,9.0,45,0.00,,,0.00,432.000000,,2013-09-14 22:04:00,
2013-09-14 18:13:00,69.0,47.0,-100.00,West,277,2.0,9.0,45,0.00,,,0.00,432.000000,,2013-09-14 22:13:00,
2013-09-14 18:42:00,67.0,48.0,-100.00,NW,308,3.0,7.0,50,0.00,,,0.00,261.000000,,2013-09-14 22:42:00,
2013-09-14 18:53:00,67.0,48.0,-100.00,NW,308,3.0,7.0,50,0.00,,,0.00,261.000000,,2013-09-14 22:53:00,
2013-09-14 19:03:00,67.0,48.0,-100.00,NW,308,3.0,7.0,50,0.00,,,0.00,261.000000,,2013-09-14 23:03:00,
2013-09-14 19:12:00,67.0,48.0,-100.00,NW,308,3.0,7.0,50,0.00,,,0.00,261.000000,,2013-09-14 23:12:00,
2013-09-14 19:42:00,60.0,51.0,-100.00,ENE,78,0.0,6.0,71,0.00,,,0.00,85.000000,,2013-09-14 23:42:00,
2013-09-14 19:53:00,60.0,51.0,-100.00,ENE,78,0.0,6.0,71,0.00,,,0.00,85.000000,,2013-09-14 23:53:00,
2013-09-14 20:02:00,60.0,51.0,-100.00,ENE,78,0.0,6.0,71,0.00,,,0.00,85.000000,,2013-09-15 00:02:00,
2013-09-14 20:12:00,60.0,51.0,-100.00,ENE,78,0.0,6.0,71,0.00,,,0.00,85.000000,,2013-09-15 00:12:00,
2013-09-14 20:53:00,51.0,48.0,-100.00,ENE,57,1.0,1.0,89,0.00,,,0.00,1.000000,,2013-09-15 00:53:00,
2013-09-14 21:01:00,51.0,48.0,-100.00,ENE,57,1.0,1.0,89,0.00,,,0.00,1.000000,,2013-09-15 01:01:00,
2013-09-14 21:11:00,51.0,48.0,-100.00,ENE,57,1.0,1.0,89,0.00,,,0.00,1.000000,,2013-09-15 01:11:00,
2013-09-14 21:42:00,48.0,47.0,-100.00,NE,56,0.0,0.0,98,0.00,,,0.00,0.000000,,2013-09-15 01:42:00,
2013-09-14 21:52:00,48.0,47.0,-100.00,NE,56,0.0,0.0,98,0.00,,,0.00,0.000000,,2013-09-15 01:52:00,
2013-09-14 22:03:00,48.0,47.0,-100.00,NE,56,0.0,0.0,98,0.00,,,0.00,0.000000,,2013-09-15 02:03:00,
2013-09-14 22:12:00,48.0,47.0,-100.00,NE,56,0.0,0.0,98,0.00,,,0.00,0.000000,,2013-09-15 02:12:00,
2013-09-14 22:42:00,46.0,46.0,-100.00,NNW,345,0.0,0.0,100,0.00,,,0.00,0.000000,,2013-09-15 02:42:00,
2013-09-14 22:52:00,46.0,46.0,-100.00,NNW,345,0.0,0.0,100,0.00,,,0.00,0.000000,,2013-09-15 02:52:00,
2013-09-14 23:02:00,46.0,46.0,-100.00,NNW,345,0.0,0.0,100,0.00,,,0.00,0.000000,,2013-09-15 03:02:00,
2013-09-14 23:11:00,46.0,46.0,-100.00,NNW,345,0.0,0.0,100,0.00,,,0.00,0.000000,,2013-09-15 03:11:00,
2013-09-14 23:44:00,45.0,45.0,-100.00,NE,52,0.0,0.0,100,0.00,,,0.00,0.000000,,2013-09-15 03:44:00,
2013-09-14 23:55:00,45.0,45.0,-100.00,NE,52,0.0,0.0,100,0.00,,,0.00,0.000000,,2013-09-15 03:55:00,